Weather History for Newark, NJ

Change the Weather History Date:

Sunday, April 27, 2014

  Actual Average Record
Temperature  
Mean Temperature 53 °F 57 °F  
Max Temperature 60 °F 66 °F 94 °F (1990)
Min Temperature 46 °F 48 °F 33 °F (1933)
Degree Days  
Heating Degree Days 12 9  
Month to date heating degree days 340 352  
Since 1 July heating degree days 5049 4696  
Cooling Degree Days 0 1  
Month to date cooling degree days 8 6  
Year to date cooling degree days 8 7  
Growing Degree Days 3 (Base 50)    
Moisture  
Dew Point 33 °F    
Average Humidity 50    
Maximum Humidity 65    
Minimum Humidity 35    
Precipitation  
Precipitation 0.00 in 0.13 in 2.36 in (2007)
Month to date precipitation 2.66 3.80  
Year to date precipitation 14.03 14.40  
Snow  
Snow 0.00 in 0.00 in T in (1967)
Month to date snowfall 0.4 0.9  
Since 1 July snowfall 61.1 28.5  
Snow Depth 0.00 in    
Sea Level Pressure  
Sea Level Pressure 29.99 in    
Wind  
Wind Speed 14 mph (NW)    
Max Wind Speed 23 mph    
Max Gust Speed 32 mph    
Visibility 10 miles    
Events      
T = Trace of Precipitation, MM = Missing Value Source: NWS Daily Summary

Daily Weather History Graph

Daily Weather History Graph

Search for Another Location

Airport:

Trip Planner

Search our weather history database for the weather conditions in past years. The results will help you decide how hot, cold, wet, or windy it might be!

Date:

Astronomy

Apr. 27, 2014 Rise Set
Actual Time 6:00 AM EDT 7:48 PM EDT
Civil Twilight 5:31 AM EDT 8:18 PM EDT
Nautical Twilight 4:55 AM EDT 8:53 PM EDT
Astronomical Twilight 4:17 AM EDT 9:32 PM EDT
Moon 5:00 AM EDT (4/27) 6:19 PM EDT (4/27)
Length of Visible Light 14h 46m
Length of Day
13h 47m
Waning Crescent, 3% of the Moon is Illuminated
Apr 27
Waning Crescent
Apr 29
New
May 6
First Quarter
May 14
Full
May 21
Last Quarter

Hourly Weather History & Observations

Time (EDT) Temp. Windchill Dew Point Humidity Pressure Visibility Wind Dir Wind Speed Gust Speed Precip Events Conditions
12:51 AM 50.0 °F - 37.4 °F 62% 29.89 in 10.0 mi NNW 15.0 mph - N/A   Scattered Clouds
1:51 AM 48.9 °F - 36.0 °F 61% 29.89 in 10.0 mi NW 12.7 mph - N/A   Partly Cloudy
2:51 AM 48.0 °F - 35.1 °F 61% 29.89 in 10.0 mi NW 10.4 mph - N/A   Partly Cloudy
3:51 AM 46.4 °F 42.9 °F 33.8 °F 62% 29.89 in 10.0 mi NW 6.9 mph - N/A   Partly Cloudy
4:51 AM 46.0 °F 44.8 °F 34.0 °F 63% 29.91 in 10.0 mi WNW 3.5 mph - N/A   Partly Cloudy
5:51 AM 46.9 °F - 35.1 °F 63% 29.92 in 10.0 mi NW 11.5 mph - N/A   Partly Cloudy
6:51 AM 48.2 °F - 35.6 °F 62% 29.96 in 10.0 mi NNW 11.5 mph - N/A   Partly Cloudy
7:51 AM 50.0 °F - 35.1 °F 57% 29.96 in 10.0 mi WNW 9.2 mph 24.2 mph N/A   Scattered Clouds
8:51 AM 53.1 °F - 33.1 °F 47% 29.98 in 10.0 mi NNW 18.4 mph 29.9 mph N/A   Partly Cloudy
9:51 AM 54.0 °F - 33.1 °F 45% 29.99 in 10.0 mi NW 19.6 mph 27.6 mph N/A   Mostly Cloudy
10:51 AM 57.0 °F - 33.1 °F 40% 29.99 in 10.0 mi WNW 17.3 mph 23.0 mph N/A   Mostly Cloudy
11:51 AM 57.0 °F - 34.0 °F 42% 30.00 in 10.0 mi NW 17.3 mph 25.3 mph N/A   Mostly Cloudy
12:51 PM 57.0 °F - 33.1 °F 40% 30.00 in 10.0 mi NW 21.9 mph 29.9 mph N/A   Mostly Cloudy
1:42 PM 55.4 °F - 30.2 °F 38% 29.99 in 10.0 mi NNW 15.0 mph - N/A   Mostly Cloudy
1:51 PM 57.0 °F - 30.9 °F 37% 29.99 in 10.0 mi NW 20.7 mph 26.5 mph N/A   Mostly Cloudy
2:51 PM 60.1 °F - 32.0 °F 35% 30.00 in 10.0 mi WNW 17.3 mph 28.8 mph N/A   Mostly Cloudy
3:51 PM 57.9 °F - 32.0 °F 37% 30.00 in 10.0 mi NNW 16.1 mph 25.3 mph N/A   Mostly Cloudy
4:51 PM 57.9 °F - 30.9 °F 36% 30.01 in 10.0 mi NNW 13.8 mph 25.3 mph N/A   Mostly Cloudy
5:51 PM 57.9 °F - 30.9 °F 36% 30.01 in 10.0 mi NNW 16.1 mph 24.2 mph N/A   Mostly Cloudy
6:51 PM 57.9 °F - 32.0 °F 37% 30.04 in 10.0 mi NW 17.3 mph - N/A   Mostly Cloudy
7:51 PM 55.9 °F - 33.1 °F 42% 30.07 in 10.0 mi NW 12.7 mph - N/A   Mostly Cloudy
8:51 PM 55.0 °F - 33.1 °F 43% 30.09 in 10.0 mi NW 15.0 mph - N/A   Mostly Cloudy
9:51 PM 54.0 °F - 33.1 °F 45% 30.12 in 10.0 mi NW 12.7 mph 21.9 mph N/A   Mostly Cloudy
10:51 PM 51.8 °F - 33.8 °F 50% 30.12 in 10.0 mi NNW 11.5 mph - N/A   Scattered Clouds
11:51 PM 51.8 °F - 33.8 °F 50% 30.13 in 10.0 mi NNW 10.4 mph - N/A   Scattered Clouds